DAL1229 KRSW-KDTW

Flight info

Callsign DAL1229
Flight time N/A
Altitude 34000
Route CSHEL8 JAMIZ Q118 THRSR/N0450F330 SMTTH Q67 HNN SUBWY CRAKN2
Aircraft B753/M-SDE2E3FGHIJ3J4J7RWXY/LB1

Departure

Time 2026-05-07 01:01
Airport Southwest Florida International Airport (KRSW)

Arrival

Time N/A
Airport Detroit Metropolitan Wayne County Airport (KDTW)
Time Latitude Longitude Altitude Speed Heading
2026-05-07 00:36 26.52929 -81.75567 30 ft 0 kts 100°
2026-05-07 00:46 26.52929 -81.75568 30 ft 1 kts 100°
2026-05-07 00:46 26.52932 -81.75584 30 ft 2 kts 107°
2026-05-07 00:46 26.52937 -81.75600 30 ft 2 kts 112°
2026-05-07 00:46 26.52943 -81.75615 30 ft 2 kts 118°
2026-05-07 00:47 26.52951 -81.75629 30 ft 2 kts 123°
2026-05-07 00:47 26.52959 -81.75642 30 ft 2 kts 129°
2026-05-07 00:47 26.52970 -81.75655 30 ft 2 kts 135°
2026-05-07 00:47 26.52981 -81.75666 30 ft 2 kts 141°
2026-05-07 00:48 26.52989 -81.75674 30 ft 0 kts 145°
2026-05-07 00:48 26.52981 -81.75662 30 ft 3 kts 114°
2026-05-07 00:48 26.52983 -81.75639 30 ft 3 kts 63°
2026-05-07 00:48 26.52997 -81.75626 30 ft 0 kts 20°
2026-05-07 00:50 26.53000 -81.75626 30 ft 0 kts 20°
2026-05-07 00:50 26.53000 -81.75625 30 ft 0 kts 20°
2026-05-07 00:51 26.53017 -81.75622 30 ft 4 kts
2026-05-07 00:52 26.53035 -81.75620 30 ft 0 kts
2026-05-07 00:52 26.53050 -81.75617 30 ft 9 kts
2026-05-07 00:52 26.53127 -81.75652 30 ft 14 kts 290°
2026-05-07 00:53 26.53144 -81.75753 30 ft 12 kts 275°
2026-05-07 00:53 26.53174 -81.75824 30 ft 9 kts 314°
2026-05-07 00:53 26.53220 -81.75859 30 ft 7 kts 328°
2026-05-07 00:53 26.53246 -81.75862 30 ft 3 kts 22°
2026-05-07 00:54 26.53274 -81.75847 30 ft 3 kts 32°
2026-05-07 00:54 26.53288 -81.75826 30 ft 4 kts 55°
2026-05-07 00:54 26.53307 -81.75794 30 ft 5 kts 55°
2026-05-07 00:54 26.53343 -81.75737 30 ft 11 kts 55°
2026-05-07 00:55 26.53402 -81.75641 30 ft 17 kts 55°
2026-05-07 00:55 26.53480 -81.75523 30 ft 19 kts 54°
2026-05-07 00:55 26.53563 -81.75395 30 ft 21 kts 54°
2026-05-07 00:55 26.53656 -81.75255 30 ft 22 kts 53°
2026-05-07 00:56 26.53745 -81.75116 30 ft 21 kts 54°
2026-05-07 00:56 26.53829 -81.74987 30 ft 19 kts 52°
2026-05-07 00:56 26.53904 -81.74876 30 ft 16 kts 55°
2026-05-07 00:56 26.53968 -81.74776 30 ft 14 kts 56°
2026-05-07 00:57 26.54025 -81.74686 30 ft 13 kts 54°
2026-05-07 00:57 26.54077 -81.74606 30 ft 12 kts 53°
2026-05-07 00:57 26.54123 -81.74535 30 ft 9 kts 56°
2026-05-07 00:57 26.54160 -81.74479 30 ft 8 kts 54°
2026-05-07 00:58 26.54199 -81.74419 30 ft 10 kts 54°
2026-05-07 00:58 26.54247 -81.74345 30 ft 12 kts 54°
2026-05-07 00:58 26.54303 -81.74258 30 ft 14 kts 54°
2026-05-07 00:58 26.54368 -81.74159 30 ft 16 kts 53°
2026-05-07 00:59 26.54507 -81.73996 30 ft 7 kts 351°
2026-05-07 00:59 26.54536 -81.74015 30 ft 4 kts 327°
2026-05-07 00:59 26.54564 -81.74040 30 ft 5 kts 302°
2026-05-07 01:00 26.54554 -81.74075 30 ft 0 kts 233°
2026-05-07 01:00 26.54519 -81.74129 30 ft 29 kts 234°
2026-05-07 01:00 26.54300 -81.74467 30 ft 77 kts 234°
2026-05-07 01:00 26.53888 -81.75098 30 ft 122 kts 234°
2026-05-07 01:01 26.53305 -81.75997 31 ft 162 kts 234°
2026-05-07 01:01 26.52595 -81.77078 247 ft 177 kts 233°
2026-05-07 01:01 26.51810 -81.78178 681 ft 191 kts 230°
2026-05-07 01:01 26.51040 -81.79353 1488 ft 190 kts 234°
2026-05-07 01:02 26.50248 -81.80629 1984 ft 210 kts 234°
2026-05-07 01:02 26.49697 -81.82206 2425 ft 237 kts 264°
2026-05-07 01:02 26.49647 -81.84096 3193 ft 247 kts 266°
2026-05-07 01:02 26.49764 -81.86023 3836 ft 263 kts 288°
2026-05-07 01:03 26.50713 -81.87820 4408 ft 279 kts 319°
2026-05-07 01:03 26.52353 -81.88893 5300 ft 278 kts 348°
2026-05-07 01:03 26.54231 -81.89315 6299 ft 278 kts 351°
2026-05-07 01:03 26.56131 -81.89809 7228 ft 281 kts 348°
2026-05-07 01:04 26.58023 -81.90355 8106 ft 285 kts 347°
2026-05-07 01:04 26.59927 -81.90931 8952 ft 289 kts 346°
2026-05-07 01:04 26.61889 -81.91541 9805 ft 292 kts 346°
2026-05-07 01:04 26.63873 -81.91811 10563 ft 295 kts
2026-05-07 01:05 26.65994 -81.91527 10935 ft 315 kts
2026-05-07 01:05 26.68237 -81.91193 11338 ft 333 kts
2026-05-07 01:05 26.70577 -81.90838 11933 ft 343 kts
2026-05-07 01:05 26.72918 -81.90477 12820 ft 342 kts
2026-05-07 01:06 26.75277 -81.90110 13536 ft 346 kts
2026-05-07 01:06 26.77637 -81.89398 14078 ft 354 kts 24°
2026-05-07 01:06 26.79792 -81.88102 14742 ft 357 kts 28°
2026-05-07 01:06 26.82000 -81.86713 15297 ft 364 kts 28°
2026-05-07 01:07 26.84198 -81.85323 15922 ft 367 kts 28°
2026-05-07 01:07 26.86452 -81.83890 16472 ft 372 kts 28°
2026-05-07 01:07 26.88700 -81.82458 17060 ft 375 kts 28°
2026-05-07 01:07 26.91003 -81.80987 17588 ft 380 kts 28°
2026-05-07 01:08 26.93302 -81.79547 18137 ft 384 kts 25°
2026-05-07 01:08 26.95722 -81.78197 18706 ft 386 kts 24°
2026-05-07 01:08 26.98127 -81.76849 19222 ft 390 kts 24°
2026-05-07 01:08 27.00659 -81.75748 19747 ft 389 kts 10°
2026-05-07 01:09 27.03320 -81.75398 20244 ft 388 kts 356°
2026-05-07 01:09 27.05987 -81.75686 20777 ft 386 kts 345°
2026-05-07 01:09 27.08601 -81.76518 21272 ft 387 kts 339°
2026-05-07 01:09 27.11135 -81.77441 21911 ft 386 kts 339°
2026-05-07 01:10 27.13711 -81.78349 22386 ft 389 kts 339°
2026-05-07 01:10 27.16298 -81.79256 22883 ft 392 kts 339°
2026-05-07 01:10 27.18922 -81.80171 23340 ft 395 kts 339°
2026-05-07 01:10 27.21550 -81.81084 23844 ft 397 kts 339°
2026-05-07 01:11 27.24202 -81.82004 24364 ft 399 kts 339°
2026-05-07 01:11 27.26884 -81.82934 24847 ft 401 kts 339°
2026-05-07 01:11 27.29530 -81.83851 25358 ft 403 kts 339°
2026-05-07 01:11 27.32249 -81.84795 25776 ft 407 kts 339°
2026-05-07 01:12 27.34968 -81.85738 26258 ft 409 kts 339°
2026-05-07 01:12 27.37666 -81.86674 26723 ft 411 kts 339°
2026-05-07 01:12 27.40438 -81.87635 27169 ft 413 kts 339°
2026-05-07 01:12 27.43158 -81.88580 27631 ft 414 kts 338°
2026-05-07 01:13 27.45960 -81.89553 28045 ft 417 kts 338°
2026-05-07 01:13 27.48747 -81.90523 28393 ft 421 kts 338°
2026-05-07 01:13 27.51541 -81.91495 28837 ft 422 kts 338°
2026-05-07 01:13 27.54346 -81.92471 29221 ft 424 kts 338°
2026-05-07 01:14 27.57201 -81.93465 29586 ft 427 kts 338°
2026-05-07 01:14 27.60053 -81.94458 29922 ft 430 kts 338°
2026-05-07 01:14 27.62909 -81.95454 30290 ft 431 kts 338°
2026-05-07 01:14 27.65776 -81.96453 30687 ft 432 kts 338°
2026-05-07 01:15 27.68643 -81.97452 31253 ft 428 kts 338°
2026-05-07 01:15 27.71474 -81.98440 31696 ft 426 kts 338°
2026-05-07 01:15 27.74289 -81.99423 32086 ft 426 kts 338°
2026-05-07 01:15 27.77137 -82.00419 32510 ft 424 kts 338°
2026-05-07 01:16 27.79977 -82.01388 32929 ft 423 kts 339°
2026-05-07 01:16 27.82788 -82.02331 33324 ft 422 kts 338°
2026-05-07 01:16 27.85582 -82.03271 33688 ft 421 kts 338°
2026-05-07 01:16 27.88405 -82.04220 34050 ft 418 kts 338°
2026-05-07 01:17 27.91176 -82.05152 34032 ft 416 kts 338°
2026-05-07 01:17 27.96740 -82.07029 34041 ft 416 kts 338°
2026-05-07 01:18 28.02287 -82.08901 34042 ft 417 kts 338°
2026-05-07 01:18 28.07873 -82.10700 34043 ft 419 kts 344°
2026-05-07 01:19 28.13753 -82.11423 34046 ft 426 kts 349°
2026-05-07 01:19 28.19648 -82.12019 34046 ft 425 kts 349°
2026-05-07 01:20 28.25549 -82.12598 34048 ft 424 kts 349°
2026-05-07 01:20 28.31443 -82.13172 34048 ft 424 kts 349°
2026-05-07 01:21 28.37331 -82.13744 34046 ft 424 kts 349°
2026-05-07 01:21 28.43220 -82.14320 34043 ft 425 kts 348°
2026-05-07 01:22 28.48785 -82.16027 34054 ft 410 kts 328°
2026-05-07 01:22 28.53598 -82.19443 34034 ft 405 kts 322°
2026-05-07 01:23 28.58243 -82.23032 34036 ft 403 kts 321°
2026-05-07 01:23 28.62843 -82.26655 34036 ft 403 kts 321°
2026-05-07 01:24 28.67454 -82.30318 34043 ft 403 kts 321°
2026-05-07 01:24 28.72044 -82.33980 34045 ft 403 kts 321°
2026-05-07 01:25 28.76650 -82.37663 34045 ft 403 kts 321°
2026-05-07 01:25 28.81213 -82.41318 34046 ft 403 kts 321°
2026-05-07 01:26 28.85826 -82.45017 34046 ft 402 kts 321°
2026-05-07 01:26 28.90391 -82.48682 34046 ft 402 kts 321°
2026-05-07 01:27 28.94954 -82.52348 34044 ft 401 kts 320°
2026-05-07 01:27 28.99517 -82.56020 34041 ft 402 kts 320°
2026-05-07 01:28 29.04086 -82.59701 34033 ft 401 kts 320°
2026-05-07 01:28 29.08650 -82.63382 34028 ft 402 kts 320°
2026-05-07 01:29 29.13247 -82.67094 34051 ft 403 kts 320°
2026-05-07 01:29 29.17831 -82.70798 34045 ft 401 kts 320°
2026-05-07 01:30 29.22367 -82.74468 34046 ft 401 kts 320°
2026-05-07 01:30 29.26945 -82.78176 34041 ft 402 kts 320°
2026-05-07 01:31 29.31489 -82.81861 34037 ft 401 kts 320°
2026-05-07 01:31 29.36045 -82.85559 34037 ft 401 kts 320°
2026-05-07 01:32 29.40598 -82.89261 34038 ft 401 kts 320°
2026-05-07 01:32 29.45138 -82.92954 34033 ft 400 kts 320°
2026-05-07 01:33 29.49680 -82.96653 34034 ft 400 kts 320°
2026-05-07 01:33 29.54657 -82.99634 34036 ft 408 kts 331°
2026-05-07 01:34 29.59900 -83.02158 34031 ft 409 kts 331°
2026-05-07 01:34 29.65185 -83.04689 34034 ft 408 kts 331°
2026-05-07 01:35 29.70416 -83.07190 34035 ft 408 kts 331°
2026-05-07 01:35 29.76542 -83.10119 34025 ft 409 kts 331°
2026-05-07 01:36 29.80866 -83.12186 34018 ft 408 kts 331°
2026-05-07 01:36 29.86121 -83.14703 34010 ft 409 kts 331°
2026-05-07 01:37 29.91352 -83.17210 34010 ft 409 kts 330°
2026-05-07 01:37 29.96614 -83.19734 34008 ft 408 kts 331°
2026-05-07 01:38 30.01872 -83.22259 34005 ft 408 kts 330°
2026-05-07 01:38 30.07109 -83.24778 34004 ft 409 kts 330°
2026-05-07 01:39 30.12348 -83.27300 34004 ft 407 kts 330°
2026-05-07 01:39 30.17583 -83.29824 34001 ft 406 kts 330°
2026-05-07 01:40 30.22810 -83.32346 34004 ft 407 kts 330°
2026-05-07 01:40 30.28056 -83.34879 33998 ft 407 kts 330°
2026-05-07 01:41 30.33263 -83.37394 33996 ft 406 kts 330°
2026-05-07 01:41 30.38500 -83.39928 33999 ft 408 kts 330°
2026-05-07 01:42 30.43737 -83.42464 33998 ft 407 kts 330°
2026-05-07 01:42 30.48985 -83.45008 33997 ft 406 kts 330°
2026-05-07 01:43 30.54162 -83.47520 33997 ft 405 kts 330°
2026-05-07 01:43 30.59399 -83.50066 34003 ft 406 kts 330°
2026-05-07 01:44 30.64597 -83.52595 33996 ft 404 kts 330°
2026-05-07 01:44 30.69777 -83.55119 34002 ft 406 kts 330°
2026-05-07 01:45 30.75023 -83.57677 34000 ft 407 kts 330°
2026-05-07 01:45 30.80225 -83.60216 33992 ft 405 kts 330°
2026-05-07 01:46 30.85419 -83.62756 34000 ft 405 kts 329°
2026-05-07 01:46 30.90605 -83.65293 33994 ft 404 kts 329°
2026-05-07 01:47 30.95801 -83.67840 34004 ft 404 kts 329°
2026-05-07 01:47 31.01006 -83.70393 34010 ft 404 kts 329°
2026-05-07 01:48 31.06164 -83.72926 34004 ft 403 kts 329°
2026-05-07 01:48 31.11341 -83.75473 34008 ft 403 kts 329°
2026-05-07 01:49 31.16519 -83.78022 34011 ft 403 kts 329°
2026-05-07 01:49 31.21703 -83.80578 34005 ft 405 kts 329°
2026-05-07 01:50 31.26879 -83.83131 34000 ft 404 kts 329°
2026-05-07 01:50 31.32049 -83.85686 33998 ft 405 kts 329°
2026-05-07 01:51 31.37252 -83.88259 33983 ft 402 kts 329°
2026-05-07 01:51 31.42384 -83.90802 33986 ft 405 kts 329°
2026-05-07 01:52 31.47606 -83.93391 33984 ft 406 kts 329°
2026-05-07 01:52 31.52893 -83.95760 34000 ft 412 kts 339°
2026-05-07 01:53 31.58571 -83.97086 33988 ft 418 kts 340°
2026-05-07 01:53 31.64251 -83.98367 33983 ft 417 kts 341°
2026-05-07 01:54 31.70012 -83.99656 33982 ft 419 kts 341°
2026-05-07 01:54 31.75702 -84.00925 33981 ft 418 kts 341°
2026-05-07 01:55 31.81416 -84.02199 33977 ft 417 kts 341°
2026-05-07 01:55 31.87149 -84.03480 33974 ft 418 kts 341°
2026-05-07 01:56 31.92874 -84.04758 33975 ft 419 kts 341°
2026-05-07 01:56 31.98629 -84.06045 33974 ft 419 kts 341°
2026-05-07 01:57 32.04301 -84.07313 33979 ft 415 kts 341°
2026-05-07 01:57 32.10031 -84.08600 33978 ft 419 kts 341°
2026-05-07 01:58 32.15816 -84.09898 33979 ft 420 kts 341°
2026-05-07 01:58 32.21549 -84.11186 33985 ft 419 kts 341°
2026-05-07 01:59 32.27268 -84.12474 33974 ft 421 kts 341°
2026-05-07 01:59 32.33070 -84.13782 33969 ft 420 kts 341°
2026-05-07 02:00 32.38789 -84.15073 33984 ft 421 kts 341°
2026-05-07 02:00 32.44568 -84.16379 33972 ft 423 kts 341°
2026-05-07 02:01 32.50373 -84.17692 33985 ft 423 kts 341°
2026-05-07 02:01 32.56114 -84.18991 33984 ft 423 kts 341°
2026-05-07 02:02 32.61943 -84.20314 33973 ft 423 kts 341°
2026-05-07 02:02 32.67703 -84.21622 33975 ft 423 kts 342°
2026-05-07 02:03 32.73539 -84.22949 33969 ft 426 kts 341°
2026-05-07 02:03 32.79350 -84.24274 33970 ft 426 kts 341°
2026-05-07 02:04 32.85157 -84.25596 33972 ft 424 kts 342°
2026-05-07 02:04 32.90984 -84.26929 33987 ft 428 kts 342°
2026-05-07 02:05 32.96826 -84.28262 33985 ft 425 kts 342°
2026-05-07 02:05 33.02632 -84.29593 33986 ft 428 kts 341°
2026-05-07 02:06 33.08485 -84.30935 33968 ft 428 kts 341°
2026-05-07 02:06 33.14414 -84.32296 33959 ft 430 kts 342°
2026-05-07 02:07 33.20273 -84.33643 33960 ft 431 kts 342°
2026-05-07 02:07 33.29172 -84.35692 33960 ft 433 kts 341°
2026-05-07 02:08 33.35055 -84.37050 33978 ft 433 kts 341°
2026-05-07 02:08 33.40995 -84.38421 33972 ft 436 kts 341°
2026-05-07 02:09 33.44989 -84.39346 33970 ft 436 kts 342°
2026-05-07 02:09 33.50962 -84.40726 33962 ft 437 kts 341°
2026-05-07 02:10 33.56968 -84.42120 33966 ft 438 kts 341°
2026-05-07 02:10 33.63031 -84.43136 33977 ft 451 kts 353°
2026-05-07 02:11 33.69358 -84.42294 33960 ft 463 kts
2026-05-07 02:11 33.75728 -84.41155 33957 ft 463 kts
2026-05-07 02:12 33.82133 -84.39987 33963 ft 466 kts
2026-05-07 02:12 33.88508 -84.38815 33959 ft 462 kts
2026-05-07 02:13 33.94866 -84.37645 33958 ft 463 kts
2026-05-07 02:13 34.01256 -84.36467 33946 ft 468 kts
2026-05-07 02:14 34.07723 -84.35270 33940 ft 468 kts
2026-05-07 02:14 34.14167 -84.34076 33950 ft 469 kts
2026-05-07 02:15 34.20633 -84.32874 33959 ft 468 kts
2026-05-07 02:15 34.27087 -84.31677 33935 ft 473 kts
2026-05-07 02:16 34.33655 -84.30455 33955 ft 476 kts
2026-05-07 02:16 34.40163 -84.29240 33962 ft 474 kts 360°
2026-05-07 02:17 34.46682 -84.28027 33952 ft 476 kts
2026-05-07 02:17 34.53233 -84.26801 33962 ft 477 kts 360°
2026-05-07 02:18 34.59832 -84.25567 33951 ft 482 kts 360°
2026-05-07 02:18 34.66470 -84.24321 33956 ft 481 kts 360°
2026-05-07 02:19 34.73128 -84.23071 33974 ft 487 kts 359°
2026-05-07 02:19 34.79811 -84.21812 33988 ft 486 kts 359°
2026-05-07 02:20 34.86499 -84.20554 33984 ft 490 kts 359°
2026-05-07 02:20 34.93235 -84.19281 33971 ft 492 kts 358°
2026-05-07 02:21 35.00018 -84.18002 33982 ft 497 kts 358°
2026-05-07 02:21 35.06816 -84.16709 34007 ft 492 kts 358°
2026-05-07 02:22 35.13653 -84.15415 33988 ft 495 kts 358°
2026-05-07 02:22 35.20459 -84.14120 34019 ft 494 kts 357°
2026-05-07 02:23 35.27273 -84.12826 34023 ft 497 kts 358°
2026-05-07 02:23 35.34102 -84.11516 33997 ft 492 kts 357°
2026-05-07 02:24 35.40906 -84.10225 33982 ft 499 kts 357°
2026-05-07 02:24 35.47722 -84.08912 33954 ft 492 kts 356°
2026-05-07 02:25 35.54561 -84.07610 33985 ft 502 kts 356°
2026-05-07 02:25 35.61379 -84.06294 33980 ft 494 kts 356°
2026-05-07 02:26 35.68198 -84.04984 33974 ft 494 kts 356°
2026-05-07 02:26 35.74970 -84.03680 33986 ft 493 kts 356°
2026-05-07 02:27 35.81783 -84.02366 33995 ft 494 kts 356°
2026-05-07 02:27 35.88543 -84.00960 34007 ft 502 kts
2026-05-07 02:28 35.91916 -83.99651 34018 ft 520 kts 11°
2026-05-07 02:28 35.95244 -83.97682 34002 ft 533 kts 20°
2026-05-07 02:28 36.01648 -83.93094 34003 ft 532 kts 19°
2026-05-07 02:29 36.08013 -83.88545 34002 ft 528 kts 19°
2026-05-07 02:29 36.14410 -83.83972 34005 ft 532 kts 19°
2026-05-07 02:30 36.20802 -83.79395 34000 ft 532 kts 19°
2026-05-07 02:30 36.27146 -83.74832 33989 ft 528 kts 19°
2026-05-07 02:31 36.33524 -83.70246 33987 ft 527 kts 19°
2026-05-07 02:31 36.39884 -83.65664 34004 ft 530 kts 19°
2026-05-07 02:32 36.46243 -83.61070 34007 ft 530 kts 18°
2026-05-07 02:32 36.52612 -83.56461 34013 ft 529 kts 19°
2026-05-07 02:33 36.58994 -83.51836 34015 ft 529 kts 18°
2026-05-07 02:33 36.65351 -83.47218 34014 ft 530 kts 18°
2026-05-07 02:34 36.71671 -83.42619 34022 ft 529 kts 18°
2026-05-07 02:34 36.78041 -83.37973 34020 ft 531 kts 18°
2026-05-07 02:35 36.84445 -83.33272 33980 ft 529 kts 19°
2026-05-07 02:35 36.90772 -83.28628 33990 ft 534 kts 19°
2026-05-07 02:36 36.97143 -83.23934 33998 ft 530 kts 18°
2026-05-07 02:36 37.03493 -83.19250 34014 ft 529 kts 18°
2026-05-07 02:37 37.09651 -83.14702 33995 ft 532 kts 19°